Regional Weather Roundup
Issued by NWS

Home | Current Version | Previous Version | Graphics & Text | Print | Product List | Glossary On
Versions: 1 2 3 4 5 6 7 8 9 10 11 12 13 14 15 16 17 18 19 20 21 22 23 24 25 26 27 28 29 30 31 32 33 34 35 36 37 38 39 40 41 42 43 44 45 46 47 48 49 50
000
ASUS43 KMKX 230911
RWRWI

WISCONSIN REGIONAL WEATHER ROUNDUP
NATIONAL WEATHER SERVICE MILWAUKEE/SULLIVAN WI
400 AM CDT SUN JUL 23 2017

NOTE: "FAIR" INDICATES FEW OR NO CLOUDS BELOW 12,000 FEET WITH NO
SIGNIFICANT WEATHER AND/OR OBSTRUCTIONS TO VISIBILITY.

WIZ001-002-006>008-014>016-023>028-231000-
NORTHWEST WISCONSIN

CITY           SKY/WX    TMP DP  RH WIND       PRES   REMARKS
SUPERIOR ARPT  NOT AVBL
ASHLAND        CLOUDY    58  58 100 NW6       29.82R FOG
HAYWARD        CLOUDY    58  56  93 N3        29.83R
SIREN          CLOUDY    63  56  77 CALM      29.83S
CUMBERLAND     CLOUDY    63  55  77 NW6       29.83S
RICE LAKE      MOCLDY    62  57  85 CALM      29.83F
CHETEK         MOCLDY    65  59  80 CALM      29.82S
LADYSMITH      CLEAR     64  59  83 CALM      29.83S
EAU CLAIRE     PTCLDY    63  62  97 CALM      29.80S
MENOMONIE      PTCLDY    65  61  87 W5        29.82S
NEW RICHMOND   MOCLDY    64  59  86 W5        29.83S
OSCEOLA        CLOUDY    64  64 100 CALM      29.85S
$$

WIZ003>005-009-010-017-018-231000-
NORTH CENTRAL WISCONSIN

CITY           SKY/WX    TMP DP  RH WIND       PRES   REMARKS
MANITOWISH WTR CLOUDY    61  61 100 W3        29.81R FOG
ARBOR VITAE    FOG       62  61  97 CALM      29.80R VSB 1
WOODRUFF       FOG       62  61  97 CALM      29.80R VSB 1
RHINELANDER    FOG       58  58 100 W6        29.80S VSB 1
EAGLE RIVER    FOG       59  59 100 CALM      29.79R VSB 1/4
LAND O LAKES   RAIN      62  62 100 CALM      29.81R VSB<1/4
PHILLIPS       CLOUDY    60  60 100 SW3       29.80S
TOMAHAWK       FOG       55  54  97 CALM      29.81R VSB 1/2
MEDFORD        FOG       61  60  99 CALM      29.81S VSB 3/4
MERRILL        CLEAR     60  60 100 CALM      29.80S
$$

WIZ029-030-035-036-043>047-231000-
CENTRAL WISCONSIN

CITY           SKY/WX    TMP DP  RH WIND       PRES   REMARKS
WAUSAU         CLEAR     65  64  97 NW5       29.77F
MOSINEE        CLEAR     64  63  94 NW3       29.80S
MARSHFIELD     CLEAR     64  61  90 NW7       29.80S
STEVENS POINT  CLEAR     64  64 100 SW3       29.80R
WAUPACA        CLEAR     71  69  95 CALM      29.78S
WAUTOMA        CLEAR     68  66  93 W5        29.79S
WISC RAPIDS    FOG       63  63 100 CALM      29.80S VSB 1/2
CAMP DOUGLAS   FOG       63  63 100 NW3       29.79F VSB 3/4
$$

WIZ011>013-019>022-031-037>040-048>050-231000-
NORTHEAST WISCONSIN

CITY           SKY/WX    TMP DP  RH WIND       PRES   REMARKS
ANTIGO         PTCLDY    59  59 100 CALM      29.80S
SHAWANO        CLOUDY    69  67  94 CALM      29.76S FOG
OCONTO         MOCLDY    64  64  98 W3        29.75S
STURGEON BAY     N/A     64  62  93 S5        29.76R
GREEN BAY      CLEAR     66  66 100 SW3       29.75F
MANITOWOC      PTCLDY    66  64  93 SW5       29.76F
APPLETON       PTCLDY    68  68 100 W7        29.76S
CLINTONVILLE   CLOUDY    68  66  94 CALM      29.77F FOG
OSHKOSH        CLEAR     70  69  97 CALM      29.77S
$$

WIZ032>034-041-042-053>061-231000-
SOUTHWEST WISCONSIN

CITY           SKY/WX    TMP DP  RH WIND       PRES   REMARKS
LA CROSSE      FOG       70  69  97 CALM      29.79F VSB 1/4
SPARTA         FOG       59  59 100 CALM      29.81F VSB 1/4
VIROQUA        CLEAR     66  66 100 CALM      29.82F
BOSCOBEL       FOG       67  66  97 CALM      29.81S VSB 1/4
PRAIRIE DU CHI CLEAR     67  65  94 CALM      29.81S
PLATTEVILLE    CLEAR     70  70 100 NW3       29.83S
$$

WIZ056-057-062-063-064-067-068-231000-
SOUTH CENTRAL WISCONSIN

CITY           SKY/WX    TMP DP  RH WIND       PRES   REMARKS
REEDSBURG      CLEAR     66  66 100 CALM      29.79F
BARABOO/DELLS  CLEAR     67  65  91 CALM      29.80F
LONE ROCK      MOCLDY    68  67  96 CALM      29.80S FOG
MINERAL POINT  CLEAR     70  70 100 NW3       29.83R FOG
MADISON        MOCLDY    70  69  97 NW3       29.79S
MIDDLETON      PTCLDY    70  70 100 NW3       29.81S
WATERTOWN      CLOUDY    68  68 100 CALM      29.78S
MONROE         CLEAR     72  70  94 W8        29.81R
JANESVILLE     FOG       70  70 100 CALM      29.78S VSB 1/2
$$

WIZ051-052-058>065-066-070>072-231000-
SOUTHEAST WISCONSIN

CITY           SKY/WX    TMP DP  RH WIND       PRES   REMARKS
MILWAUKEE      CLOUDY    73  71  93 SW3       29.77F
WAUKESHA       PTCLDY    68  66  94 SW3       29.79S
MILWAUKEE/TIMM CLOUDY    70  64  83 NE8       29.79R
RACINE         CLOUDY    69  69 100 SW5       29.79F FOG
KENOSHA        PTCLDY    69  68  96 SW3       29.78F
FOND DU LAC    PTCLDY    71  67  87 NW6       29.77S
SHEBOYGAN      MOCLDY    68  68 100 CALM      29.78S
WEST BEND      CLOUDY    68  66  94 E5        29.79S
JUNEAU         PTCLDY    69  68  97 CALM      29.79F
$$

LSZ147-162-231000-
LAKE SUPERIOR

STATION/POSITION TIME  TEMP    WIND        PRES    WAVE
                       AIR SEA DIR/SP/G            HT/PER
                 (UTC) (F)     (DEG/KT/KT) (MB)    (FT/S)
W MID LAKE BUOY  0850   50 47   10/  8/ 10 1009.6R   2/ 5
DEVILS ISLAND    0800   55      10/  4/  5 1009.9F
SAXON HARBOR     0830   59     360/  5/  8 1009.1S
$$

LMZ867-665-643>646-231000-
LAKE MICHIGAN

STATION/POSITION TIME  TEMP    WIND        PRES    WAVE
                       AIR SEA DIR/SP/G            HT/PER
                 (UTC) (F)     (DEG/KT/KT) (MB)    (FT/S)
CHAMBERS ISLAND  0840   68     240/  2/  7 1006.8S
S GREEN BAY BUOY 0900   70 72  210/ 10/ 12 1007.1
N MID LAKE BUOY  0850   67 68  220/  4/  4 1008.0R   0
NORTHPORT PIER   0840   65        CALM     1007.5R
KEWAUNEE LAKESHO 0848   65     290/  4/  5 1006.8F
SHEBOYGAN LAKESH 0900   67     150/ 10/ 12 1007.6F
PORT WASHINGTON  0840   69      80/  8/ 12 1009.1F
ATWATER BUOY     0739   70 68  170/  6/  6 1008.7F
MILWAUKEE LAKESH 0850   71      20/ 11/ 14   N/A
S MID LAKE BUOY  0850   70 70  120/  2/  4 1008.5F   0
KENOSHA   LAKESH 0900   72     230/  4/  5 1008.5
$$

TC  - TEMPERATURE IN CELSIUS
VSB - VISIBILITY IN STATUTE MILES
WCI - WIND CHILL INDEX
HX  - HEAT INDEX




USA.gov is the U.S. government's official web portal to all federal, state and local government web resources and services.